CW1490 Weather Reports


Display with metric or nautical units.
time (UTC)temp
F
wind
direction
speed
MPH
gust
MPH
rain 1hr
in
rain 24hr
in
rain mn
in
humidity
%
barometer
mb
20170923020500 62 324 0.0 0.0 0.00 0.00 0.00 92 1016.9
20170923015002 62 324 0.0 0.0 0.00 0.00 0.00 92 1016.7
20170923013457 62 324 0.0 0.0 0.00 0.00 0.00 92 1016.8
20170923012000 63 324 0.0 0.0 0.00 0.00 0.00 90 1016.8
20170923010503 63 324 0.0 0.0 0.00 0.00 0.00 89 1016.6
20170923005000 64 324 0.0 0.0 0.00 0.00 0.00 88 1016.7
20170923003455 64 324 0.0 0.0 0.00 0.00 0.00 87 1016.7
20170923001955 63 302 0.0 0.0 0.00 0.00 0.00 89 1016.7
20170923000458 64 354 0.0 0.0 0.00 0.00 0.00 87 1016.5
20170922234954 64 354 0.0 0.0 0.00 0.00 0.00 87 1016.3
20170922233600 65 354 0.0 0.0 0.00 0.00 0.00 84 1016.4
20170922232056 66 354 0.0 0.0 0.00 0.00 0.00 85 1016.3
20170922230454 66 354 0.0 0.0 0.00 0.00 0.00 79 1016.1
20170922224952 67 354 0.0 0.0 0.00 0.00 0.00 82 1016.0
20170922223452 68 354 0.0 2.0 0.00 0.00 0.00 80 1016.0
20170922221957 68 39 0.0 0.0 0.00 0.00 0.00 77 1015.9
20170922220453 70 39 1.0 3.0 0.00 0.00 0.00 71 1015.8
20170922214954 71 29 2.0 5.0 0.00 0.00 0.00 63 1015.8
20170922213452 72 42 3.0 9.0 0.00 0.00 0.00 63 1015.9
20170922212003 72 38 3.0 5.0 0.00 0.00 0.00 62 1016.1
20170922210458 73 350 2.0 6.0 0.00 0.00 0.00 60 1015.9
20170922204953 73 35 4.0 10.0 0.00 0.00 0.00 57 1016.0
20170922203450 73 48 4.0 10.0 0.00 0.00 0.00 54 1016.1
20170922201956 74 29 3.0 13.0 0.00 0.00 0.00 52 1016.1
20170922200446 74 11 7.0 11.0 0.00 0.00 0.00 50 1016.1
20170922194951 74 25 6.0 12.0 0.00 0.00 0.00 52 1016.2
20170922193447 74 37 6.0 14.0 0.00 0.00 0.00 51 1016.2
20170922191945 74 19 5.0 9.0 0.00 0.00 0.00 54 1016.3
20170922190442 74 39 3.0 11.0 0.00 0.00 0.00 54 1016.4
20170922184944 74 12 8.0 15.0 0.00 0.00 0.00 51 1016.4
20170922183546 74 25 6.0 10.0 0.00 0.00 0.00 51 1016.5
20170922181951 74 9 9.0 14.0 0.00 0.00 0.00 49 1016.6
20170922180439 76 41 7.0 15.0 0.00 0.00 0.00 46 1016.7
20170922174934 76 20 11.0 16.0 0.00 0.00 0.00 45 1016.8
20170922173432 74 9 9.0 15.0 0.00 0.00 0.00 50 1016.8
20170922171940 73 44 8.0 16.0 0.00 0.00 0.00 49 1017.0
20170922170427 74 327 6.0 14.0 0.00 0.00 0.00 52 1017.2
20170922164931 74 36 4.0 15.0 0.00 0.00 0.00 51 1017.2
20170922163436 73 44 6.0 13.0 0.00 0.00 0.00 54 1017.3
20170922161948 73 31 9.0 17.0 0.00 0.00 0.00 51 1017.4
20170922160519 72 47 9.0 16.0 0.00 0.00 0.00 53 1017.4
20170922154914 71 4 4.0 15.0 0.00 0.00 0.00 61 1017.5
20170922153441 69 53 7.0 12.0 0.00 0.00 0.00 66 1017.7
20170922151914 67 21 6.0 12.0 0.00 0.00 0.00 67 1017.9
20170922150412 65 60 5.0 9.0 0.00 0.00 0.00 74 1018.1
20170922144910 63 4 2.0 5.0 0.00 0.00 0.00 81 1018.2
20170922143402 62 4 3.0 6.0 0.00 0.00 0.00 80 1018.3
20170922141905 62 359 1.0 6.0 0.00 0.00 0.00 81 1018.4
20170922140358 61 48 3.0 8.0 0.00 0.00 0.00 81 1018.6
20170922134920 62 23 3.0 11.0 0.00 0.00 0.00 81 1018.6
20170922133354 61 33 5.0 12.0 0.00 0.00 0.00 83 1018.7
20170922131852 61 27 6.0 10.0 0.00 0.00 0.00 84 1018.6
20170922130353 60 33 5.0 9.0 0.00 0.00 0.00 85 1018.7
20170922124846 59 14 3.0 9.0 0.00 0.00 0.00 87 1018.8
20170922123350 58 354 3.0 11.0 0.00 0.00 0.00 88 1018.8
20170922121852 58 348 4.0 9.0 0.00 0.00 0.00 89 1018.7
20170922120348 58 33 4.0 10.0 0.00 0.00 0.00 91 1018.6
20170922114836 57 9 4.0 7.0 0.00 0.00 0.00 93 1018.5
20170922113332 56 23 5.0 10.0 0.00 0.00 0.00 93 1018.5
20170922111832 56 26 2.0 6.0 0.00 0.00 0.00 94 1018.5
20170922110328 55 349 4.0 8.0 0.00 0.00 0.00 95 1018.4
20170922104825 55 347 2.0 5.0 0.00 0.00 0.00 95 1018.3
20170922103323 55 350 1.0 4.0 0.00 0.00 0.00 95 1018.1
20170922101830 54 347 0.0 4.0 0.00 0.00 0.00 95 1018.1
20170922100322 55 332 1.0 4.0 0.00 0.00 0.00 95 1017.8
20170922095125 54 326 1.0 3.0 0.00 0.00 0.00 95 1017.7
20170922093321 54 287 0.0 2.0 0.00 0.00 0.00 95 1017.7
20170922091821 54 287 0.0 3.0 0.00 0.00 0.00 94 1017.7
20170922090318 55 359 1.0 4.0 0.00 0.00 0.00 95 1017.7
20170922084818 55 4 1.0 3.0 0.00 0.00 0.00 95 1017.7
20170922083322 55 330 0.0 2.0 0.00 0.00 0.00 95 1017.7
20170922081816 55 333 0.0 3.0 0.00 0.00 0.00 95 1017.8
20170922080318 55 359 0.0 3.0 0.00 0.00 0.00 95 1017.8
20170922074818 55 298 0.0 0.0 0.00 0.00 0.00 95 1017.7
20170922073313 55 298 0.0 0.0 0.00 0.00 0.00 95 1017.7
20170922071812 56 299 0.0 0.0 0.00 0.00 0.00 95 1017.8
20170922070328 56 299 0.0 3.0 0.00 0.00 0.00 95 1017.9
20170922064809 56 322 0.0 0.0 0.00 0.00 0.00 95 1017.9
20170922063313 56 315 0.0 0.0 0.00 0.00 0.00 95 1018.1
20170922061812 56 341 0.0 0.0 0.00 0.00 0.00 95 1018.3
20170922060313 56 342 0.0 1.0 0.00 0.00 0.00 94 1018.4
20170922054801 57 349 1.0 3.0 0.00 0.00 0.00 94 1018.4
20170922053259 57 337 1.0 3.0 0.00 0.00 0.00 94 1018.4
20170922051800 58 348 0.0 3.0 0.00 0.00 0.00 93 1018.3
20170922050258 58 354 1.0 3.0 0.00 0.00 0.00 93 1018.3
20170922044800 58 341 1.0 4.0 0.00 0.00 0.00 93 1018.3
20170922043301 58 359 0.0 4.0 0.00 0.00 0.00 93 1018.3
20170922041754 58 345 0.0 0.0 0.00 0.00 0.00 93 1018.2
20170922040252 58 339 0.0 0.0 0.00 0.00 0.00 93 1018.3
20170922034804 58 332 0.0 0.0 0.00 0.00 0.00 93 1018.3
20170922033248 59 332 0.0 0.0 0.00 0.00 0.00 92 1018.4
20170922031748 59 330 0.0 0.0 0.00 0.00 0.00 93 1018.4
20170922030254 59 326 0.0 0.0 0.00 0.00 0.00 95 1018.4
20170922024747 59 326 0.0 0.0 0.00 0.00 0.00 94 1018.4
20170922023444 59 14 0.0 2.0 0.00 0.00 0.00 94 1018.2
20170922021745 60 24 2.0 4.0 0.00 0.00 0.00 95 1018.2